Hourly Data Report for September 14, 2017

All times are specified in Local Standard Time (LST). Add 1 hour to adjust for Daylight Saving Time where and when it is observed.

RANKIN INLET A
NUNAVUT

62°48'38.000" N
92°06'53.000" W
32.30 m
2303405
71083
YRT

Download Data

Hourly Data (September 2017)
Hourly Data Report for September 14, 2017
Temp Definition
°C
Dew Point Temp Definition
°C
Rel Hum Definition
%
Wind Dir Definition
10's deg

Wind Spd Definition
km/h
Visibility Definition
km
Stn Press Definition
kPa
Hmdx Definition


Wind Chill Definition


Weather Definition


TIME
00:00 Legend Double Dagger 1.8 0.0 88 34 9 24.1 101.29     Mainly Clear
01:00 Legend Double Dagger 1.6 0.6 93 36 7 24.1 101.29     LegendNANA
02:00 Legend Double Dagger 1.0 0.4 96 35 7 24.1 101.31     LegendNANA
03:00 Legend Double Dagger 0.8 0.3 97 35 8 24.1 101.32     Mainly Clear
04:00 Legend Double Dagger -0.1 -0.8 95 34 10 24.1 101.33   -3 LegendNANA
05:00 Legend Double Dagger 0.7 0.1 95 36 7 24.1 101.35     LegendNANA
06:00 Legend Double Dagger 0.7 -0.1 95 1 7 24.1 101.36     Mostly Cloudy
07:00 Legend Double Dagger 1.2 0.6 96 36 7 24.1 101.37     LegendNANA
08:00 Legend Double Dagger 2.1 1.1 93 35 7 24.1 101.39     LegendNANA
09:00 Legend Double Dagger 4.0 1.5 84 35 6 24.1 101.39     Mostly Cloudy
10:00 Legend Double Dagger 5.7 2.2 78 35 8 24.1 101.39     LegendNANA
11:00 Legend Double Dagger 6.9 2.4 73 33 8 24.1 101.37     LegendNANA
12:00 Legend Double Dagger 8.5 1.2 60 35 13 24.1 101.35     Mostly Cloudy
13:00 Legend Double Dagger 9.3 -0.4 50 32 14 24.1 101.35     LegendNANA
14:00 Legend Double Dagger 9.9 -0.9 47 33 14 24.1 101.34     LegendNANA
15:00 Legend Double Dagger 9.9 -1.3 45 30 17 24.1 101.33     Mainly Clear
16:00 Legend Double Dagger 9.9 -1.6 44 31 19 24.1 101.32     LegendNANA
17:00 Legend Double Dagger 9.1 -0.8 50 31 16 24.1 101.32     LegendNANA
18:00 Legend Double Dagger 6.8 0.3 63 31 15 24.1 101.34     Mostly Cloudy
19:00 Legend Double Dagger 4.9 -0.9 66 32 16 24.1 101.33     LegendNANA
20:00 Legend Double Dagger 4.5 0.7 76 30 19 24.1 101.35     LegendNANA
21:00 Legend Double Dagger 3.6 0.7 81 29 17 24.1 101.33     Mainly Clear
22:00 Legend Double Dagger 3.2 1.0 86 32 20 24.1 101.33     LegendNANA
23:00 Legend Double Dagger 3.3 1.8 90 32 18 24.1 101.34     LegendNANA

Notes on Data Quality.

Legend

  • E = Estimated
  • M = Missing
  • NA = Not Available
  • ‡ = Partner data that is not subject to review by the National Climate Archives
Date modified: